Regional Weather Roundup
Issued by NWS

Home | Current Version | Previous Version | Text Only | Print | Product List | Glossary On
Versions: 1 2 3 4 5 6 7 8 9 10 11 12 13 14 15 16 17 18 19 20 21 22 23 24 25 26 27 28 29 30 31 32 33 34 35 36 37 38 39 40 41 42 43 44 45 46 47 48 49 50
000
ASCA44 KEWX 240120
RWRMX

LATIN AMERICA AND CARIBBEAN REGIONAL WEATHER ROUNDUP
NATIONAL WEATHER SERVICE AUSTIN/SAN ANTONIO TX
800 PM CDT SAT JUL 23 2016

NOTE: "FAIR" INDICATED FEW OR NO CLOUDS BELOW 12,000 FEET WITH NO
SIGNIFICANT WEATHER AND/OR OBSTRUCTIONS TO VISIBILITY.

BAJA CALIFORNIA

CITY           SKY/WX    TMP DP  RH WIND       PRES   REMARKS
LORETO         PTSUNNY   84  79  84 S9        29.78R HX  96
LA PAZ         PTSUNNY   90  66  45 SW9       29.83S HX  92
MEXICALI       MOSUNNY  102  57  22 SE18      29.67F BLWGDUSTHX 101
S.J. DEL CABO  PTSUNNY   86  70  58 SE6       29.87R HX  90
TIJUANA        MOSUNNY   82  59  44 N13       29.84R

NORTHWESTERN MEXICO

CITY           SKY/WX    TMP DP  RH WIND       PRES   REMARKS
CULIACAN       CLOUDY    86  73  66 S9        29.86S HX  93
DURANGO        CLOUDY    75  52  43 E3        30.16S
GUAYMAS        MOSUNNY   90  81  74 S12       29.74R HX 108
HERMOSILLO     MOSUNNY  100  70  37 S12       29.79F HX 107
CD. JUAREZ     MOSUNNY  102  46  15 SE8       29.86F HX  98
LOS MOCHIS     PTSUNNY   88  70  55 S17       29.82F HX  92
OBREGON        MOSUNNY   91  70  49 SW12      29.77R HX  97

NORTHEASTERN MEXICO

CITY           SKY/WX    TMP DP  RH WIND       PRES   REMARKS
CHIHUAHUA      MOSUNNY   95  48  20 E5        29.98S HX  91
MATAMOROS      PTCLDY    88  73  62 SE15      29.87S HX  96
MONCLOVA         N/A    N/A N/A N/A MISG        N/A
MONTERREY      PTCLDY    97  55  24 E9        29.83S HX  95
NUEVO LAREDO   PTCLDY   100  64  30 SE14      29.80S HX 103
PIEDRAS NEGRAS   N/A    N/A N/A N/A MISG        N/A
REYNOSA        PTCLDY    90  68  48 SE9       29.85R HX  93
SALTILLO       CLEAR     77  64  65 N18       30.15R
TORREON        PTCLDY    97  52  21 NE6       29.92F HX  94
CD. VICTORIA     N/A    N/A N/A N/A MISG        N/A

WESTERN MEXICO

CITY           SKY/WX    TMP DP  RH WIND       PRES   REMARKS
AGUASCALIENTES MOCLDY    68  57  68 E3        30.17F
COLIMA           N/A    N/A N/A N/A MISG        N/A
DEL BAJIO        N/A    N/A N/A N/A MISG        N/A
GUADALAJARA    MOCLDY    70  59  68 CALM      30.13R
MANZANILLO     CLOUDY    84  77  79 S9        29.87S HX  94
MAZATLAN       PTSUNNY   86  75  70 NW8       29.86R HX  95
P. VALLARTA    CLOUDY    82  79  89 SE5       29.85F HX  93
URUAPAN        MOCLDY    66  63  88 CALM      30.17R
ZACATECAS      PTCLDY    75  46  35 CALM      30.22S

CENTRAL MEXICO

CITY           SKY/WX    TMP DP  RH WIND       PRES   REMARKS
CUERNAVACA       N/A    N/A N/A N/A MISG        N/A
MEXICO CITY    PTCLDY    66  50  55 E10       30.29R
MORELIA        CLOUDY    63  61  94 CALM      30.22R
POZA RICA      PTCLDY    86  77  74 SE9       29.94S HX  97
PUEBLA         MOCLDY    59  48  67 N12       30.32R
QUERETARO      RAIN      59  57  94 NW6       30.31R
S. LUIS POTOSI PTCLDY    73  50  43 E14       30.19R
TAMPICO        CLEAR     84  73  70 SE12      29.90R HX  91
TOLUCA         MOCLDY    63  52  67 SE10      30.37R

SOUTHERN MEXICO

CITY           SKY/WX    TMP DP  RH WIND       PRES   REMARKS
ACAPULCO       CLEAR     82  75  78 W6        29.83R
B. DE HUATULCO PTCLDY    82  72  69 CALM      29.91S
OAXACA         MOCLDY    68  59  73 E6        30.19R
P. ESCONDIDO     N/A    N/A N/A N/A MISG        N/A
VERACRUZ       PTCLDY    82  75  78 E5        29.90R
ZIHUATANEJO    MOCLDY    82  73  74 W3        29.86F

YUCATAN PENINSULA

CITY           SKY/WX    TMP DP  RH WIND       PRES   REMARKS
CAMPECHE       MOCLDY    77  75  94 E8        29.95
CANCUN         MOCLDY    84  77  79 E5        29.98R HX  94
CHETUMAL       MOCLDY    84  75  74 E6        29.95R HX  92
CD. DEL CARMEN MOCLDY    84  75  74 NE17      29.90F HX  92
COZUMEL        PTCLDY    81  75  83 E3        29.97S
MERIDA         MOCLDY    77  73  88 S5        30.00R
MINATITLAN       N/A    N/A N/A N/A MISG        N/A
TAPACHULA      PTCLDY    82  75  78 CALM      29.82R
TUX. GUTIERREZ MOCLDY    77  70  78 CALM      29.91S
VILLAHERMOSA   PTCLDY    84  77  79 N6        29.91R HX  94

CENTRAL AMERICA

CITY           SKY/WX    TMP DP  RH WIND       PRES   REMARKS
MANAGUA        PTCLDY    84  73  70 E7        29.86R HX  91

CARIBBEAN

CITY           SKY/WX    TMP DP  RH WIND       PRES   REMARKS
ARUBA          PTCLDY    84  75  74 E14       29.89S HX  92
CURACAO        PTCLDY    82  75  78 E12       29.92R
KINGSTON       PTCLDY    86  79  79 SE14      29.92S HX  99
NASSAU         PTCLDY    84  73  70 CALM      30.04R HX  91
SAN JUAN       LGT RAIN  81  75  83 VRB5      30.01R
SANTO DOMINGO  PTCLDY    77  73  88 NE5       29.97R
ST. CROIX      CLEAR     81  73  78 NE8       30.01
ST. KITTS      PTCLDY    81  75  83 E12       30.00S
ST. MAARTEN    LGT RAIN  77  73  88 E8        30.00

$$




USA.gov is the U.S. government's official web portal to all federal, state and local government web resources and services.